Location: Unspecified
(0.0000°N, 0.0000°E)
Time: 11:23:51
(UTC+00:00)

Vanguard 2 - Pass Details

Date: 20 November 2019
Orbit: 553 x 2938 km, 32.9° (Epoch: 07 December)

Event Time Altitude Azimuth Distance (km) Brightness Sun altitude
Rises 04:01:29 0° 234° (SW) 6,714 12.0 -24.4°
Reaches altitude 10° 04:05:53 10° 234° (SW) 5,760 11.7 -23.4°
Maximum altitude 04:24:04 90° 327° (NNW) 2,647 10.1 -19.1°
Drops below altitude 10° 04:37:27 10° 54° (NE) 4,422 11.8 -16.0°
Sets 04:40:21 0° 54° (NE) 5,150 12.2 -15.3°
